Location: *
(60.1759°S, 155.0663°W)
Time: 09:11:56
(UTC+00:00)

Envisat - Pass Details

Date: 17 September 2019
Orbit: 764 x 766 km, 98.1° (Epoch: 15 October)

Event Time Altitude Azimuth Distance (km) Brightness Sun altitude
Rises 15:28:16 0° 33° (NNE) 3,245 6.6 -7.7°
Reaches altitude 10° 15:30:35 10° 36° (NE) 2,325 5.9 -7.4°
Maximum altitude 15:35:38 60° 115° (ESE) 891 3.7 -6.8°
Drops below altitude 10° 15:40:44 10° 193° (SSW) 2,350 5.5 -6.1°
Sets 15:43:05 0° 196° (SSW) 3,282 6.2 -5.8°
